DECAYED

STARLINK-30559, 58039 (Decayed)

Orbit data source: Space-Track

STARLINK-30559, 58039 was a payload satellite owned by SpaceX/Seattle (US) in LEO that was launched on Mon, 09 Oct 2023 UTC via an FALCON 9 launch vehicle from the Air Force Western Test Range (AFWTR). Payload-class satellites include a variety of spacecraft equipped with specific instruments for various scientific and technological missions. These include communications satellites like Starlink; space stations such as the ISS; scientific satellites like the Hubble; Earth observation satellites from companies like Planet Labs, Umbra, and HawkEye 360; GPS; miniature CubeSats for education and research; and military/defense satellites.

Not visible in the next 10 days
Identifier
58039, 2023-156M
Orbit
Decayed
Country
Flag of USUS
Related business
Manufacturer
SpaceX/Seattle
Mission
Decayed Commercial Communications
Bus & Motor
STARLINK V2M, Unknown motor
Mass
730 kg wet, ~700 kg dry
Launch date (UTC)
2023-10-09 (3 years ago)
Launch vehicle
FALCON 9
Launch site
Air Force Western Test Range (AFWTR)
Object type
Payload
Rocket body
Debris
Shape & HBR
Box + 2 Pan, 17.7 m
Radar Cross Section
33.884 m², Large (>1 m²)

Expand to show TLE details & history
Last TLE update: 3 months ago

TLE from 3 months ago
0 STARLINK-30559
1 58039U 23156M   26077.96298965  .16016502  12119-4  38215-2 0  9998
2 58039  53.1239 110.9764 0004299  10.5615 349.5517 16.28805304136641
Epoch: 2026-03-18T23:06Z
TLE epoch observation values (Epoch: 2026-03-18T23:06:42.305Z)
Latitude
-0.00006°
Longitude
-52.21915°
Altitude
193.907 km
Speed
7.793 km/s
True Right ascension
07h 23m 54s
True Declination
0° 00' 00"
Sunlit
Object was in full shadow at epoch
Visualization orbit readout
Latitude
Unknown
Longitude
Unknown
Altitude
Unknown
Speed
Unknown
Apparent Right ascension
Unknown
Apparent Declination
Unknown
Sunlit
N/A
Visualization observer readout
Local Sidereal Time
21:46:19
Azimuth
Unknown
Elevation
Unknown
Doppler factor
Unknown
Orbital elements
Apogee altitude
198.852 km
Perigee altitude
193.199 km
Semi-major axis
6,574.162 km
Eccentricity
0.00043
Inclination
53.1239°
RAAN
110.9764°
Arg. of periapsis
10.5615°
True anomaly
349.54276°
Mean anomaly
349.5517°
Eccentric anomaly
349.54723°
Mean motion
4.07176 °/min
Orbital period
88.41 mins
BSTAR
0.0038215
Loading maneuver chart data...
Computing Atmospheric mass density...
Loading historical data...
Loading historical data...
Loading historical data...
Loading historical data...
Loading historical data...
Loading historical data...
Loading historical data...

Documentation

Showing up to 5 results
|